Regional Weather Roundup
Issued by NWS Jackson, KY

Home | Current Version | Previous Version | Text Only | Print | Product List | Glossary On
Versions: 1 2 3 4 5 6 7 8 9 10 11 12 13 14 15 16 17 18 19 20 21 22 23 24 25 26 27 28 29 30 31 32 33 34 35 36 37 38 39 40 41 42 43 44 45 46 47 48 49 50
000
ASUS43 KJKL 011010
RWRJKL

EAST KENTUCKY HOURLY WEATHER ROUNDUP
NATIONAL WEATHER SERVICE JACKSON KY
600 AM EDT TUE SEP 01 2015

NOTE: "FAIR" INDICATES FEW OR NO CLOUDS BELOW 12,000 FEET WITH
NO SIGNIFICANT WEATHER AND/OR OBSTRUCTIONS TO VISIBILITY.

* THESE REPORTS ARE NOT UNDER NWS QUALITY CONTROL AND MAY NOT
  REPORT WEATHER SUCH AS PRECIPITATION AND FOG.

KYZ079-080-083-085-087-088-110-112-115-119-120-011100
...EASTERN KENTUCKY...

CITY           SKY/WX    TMP DP  RH WIND       PRES   REMARKS
JACKSON        CLEAR     68  65  90 W3        30.16R
LONDON         CLEAR     66  62  87 CALM      30.15R
SOMERSET*      CLEAR     63  63 100 CALM      30.15S FOG
MONTICELLO*    FOG       61  61 100 CALM      30.17R VSB<1/4
WILLIAMSBURG*  CLOUDY    63  63 100 CALM      30.16R
MIDDLESBORO*   FOG       63  63 100 CALM      30.17R VSB 1/2
HARLAN APT*      N/A     64  64 100 MISG      30.18R
HAZARD APT*    MOSUNNY   66  66 100 CALM      30.16R FOG
BLACK MTN*       N/A    N/A N/A N/A CALM        N/A
PIKEVILLE APT* CLEAR     66  66 100 CALM      30.16R FOG
BIG SANDY*     FOG       65  65 100 SW3       30.15R VSB 3/4
MOREHEAD APT*    N/A     64  64 100 CALM      30.16R FOG
$$

KYZ035-036-041-042-044-050-067-078-099-011100
...CENTRAL KENTUCKY...

CITY           SKY/WX    TMP DP  RH WIND       PRES   REMARKS
MT STERLING*   CLEAR     63  63 100 CALM      30.16R FOG
FLEMING/MASON* CLEAR     64  64 100 S5        30.15R FOG
DANVILLE*      CLEAR     61  61 100 CALM      30.16R
RICHMOND*      CLEAR     63  61  94 CALM      30.14R
LEXINGTON      CLEAR     65  63  93 S5        30.14S
FRANKFORT      CLEAR     64  61  90 CALM      30.13R
$$

KYZ091>093-OHZ055-061-077-WVZ005-015-034-035-042-011100
...SOUTHERN OHIO/WEST VIRGINIA...

CITY           SKY/WX    TMP DP  RH WIND       PRES   REMARKS
COVINGTON      CLEAR     67  65  93 CALM      30.13R
COLUMBUS       CLEAR     69  67  93 CALM      30.10S
DAYTON         CLEAR     68  67  96 CALM      30.13R
WILMINGTON     CLEAR     66  63  90 CALM      30.13R FOG
HUNTINGTON     FOG       64  64 100 E3        30.12R VSB 3/4
CHARLESTON     PTCLDY    65  63  93 CALM      30.13R FOG
PINEVILLE*     FOG       65  65 100 MISG      30.22R VSB 1/2
BECKLEY        CLEAR     62  59  90 CALM      30.20R
BLUEFIELD      CLEAR     65  59  81 W3        30.22S
$$

VAZ002-007-008-TNZ017-027-036-066-071-011100
...SOUTHWEST VIRGINIA/EAST TENNESSEE...

CITY           SKY/WX    TMP DP  RH WIND       PRES   REMARKS
WISE*          CLEAR     66  64  94 CALM      30.22S
JONESVILLE*    SUNNY     61  59  94 CALM      30.18R FOG
ABINGDON*      PTCLDY    65  62  90 CALM      30.18S
BRISTOL        PTCLDY    62  61  96 N3        30.16R
OAK RIDGE      PTCLDY    66  64  93 CALM      30.15R
CROSSVILLE     CLEAR     64  60  87 CALM      30.18R
NASHVILLE      CLEAR     68  65  90 CALM      30.13R
$$

...KEY TO REMARKS...
VSB - VISIBILITY IN MILES
WCI - WIND CHILL INDEX
HX  - HEAT INDEX

$$


USA.gov is the U.S. government's official web portal to all federal, state and local government web resources and services.